2023/03/07 00:00:00,29.6,-0.4
2023/03/07 00:10:00,29.7, 0.0
2023/03/07 00:20:00,29.7,-0.4
2023/03/07 00:30:00,29.7,-0.3
2023/03/07 00:40:00,29.7,-0.1
2023/03/07 00:50:00,29.6,-0.4
2023/03/07 01:00:00,29.7,-0.3
2023/03/07 01:10:00,29.7, 0.0
2023/03/07 01:20:00,29.8,-0.3
2023/03/07 01:30:00,29.8,-0.3
2023/03/07 01:40:00,29.8,-0.4
2023/03/07 01:50:00,29.8,-0.5
2023/03/07 02:00:00,29.8,-0.7
2023/03/07 02:10:00,29.7,-0.3
2023/03/07 02:20:00,29.7,-0.7
2023/03/07 02:30:00,29.5,-0.7
2023/03/07 02:40:00,29.5,-0.8
2023/03/07 02:50:00,29.5,-0.7
2023/03/07 03:00:00,29.5,-0.6
2023/03/07 03:10:00,29.5,-0.7
2023/03/07 03:20:00,29.6,-0.8
2023/03/07 03:30:00,29.6,-0.8
2023/03/07 03:40:00,29.6,-0.9
2023/03/07 03:50:00,29.6,-0.9
2023/03/07 04:00:00,29.6, 0.2
2023/03/07 04:10:00,29.6,-0.6
2023/03/07 04:20:00,29.6,-0.5
2023/03/07 04:30:00,29.6,-1.1
2023/03/07 04:40:00,29.6,-0.7
2023/03/07 04:50:00,29.6,-0.7
2023/03/07 05:00:00,29.6,-1.2
2023/03/07 05:10:00,29.6,-0.7
2023/03/07 05:20:00,29.6,-1.1
2023/03/07 05:30:00,29.6,-1.1
2023/03/07 05:40:00,29.6,-0.8
2023/03/07 05:50:00,29.5,-0.9
2023/03/07 06:00:00,29.4,-1.1
2023/03/07 06:10:00,29.3,-1.0
2023/03/07 06:20:00,29.2,-1.3
2023/03/07 06:30:00,29.1,-1.2
2023/03/07 06:40:00,29.1,-0.9
2023/03/07 06:50:00,29.2,-1.2
2023/03/07 07:00:00,29.3,-1.2
2023/03/07 07:10:00,29.2,-1.0
2023/03/07 07:20:00,29.2,-0.8
2023/03/07 07:30:00,29.3,-0.3
2023/03/07 07:40:00,29.5, 0.0
2023/03/07 07:50:00,29.4, 1.1
2023/03/07 08:00:00,29.1, 6.9
2023/03/07 08:10:00,28.9, 8.5
2023/03/07 08:20:00,28.8, 8.8
2023/03/07 08:30:00,28.8,10.2
2023/03/07 08:40:00,28.8,11.5
2023/03/07 08:50:00,28.7,11.6
2023/03/07 09:00:00,28.7,13.0
2023/03/07 09:10:00,28.7,13.4
2023/03/07 09:20:00,28.7,12.7
2023/03/07 09:30:00,28.5,11.7
2023/03/07 09:40:00,28.6,12.4
2023/03/07 09:50:00,28.6,12.4
2023/03/07 10:00:00,28.7,12.0
2023/03/07 10:10:00,28.7,10.4
2023/03/07 10:20:00,28.7, 9.6
2023/03/07 10:30:00,28.6, 9.6
2023/03/07 10:40:00,28.6,10.2
2023/03/07 10:50:00,28.6,10.3
2023/03/07 11:00:00,28.6,11.0
2023/03/07 11:10:00,28.5,11.1
2023/03/07 11:20:00,28.5,11.4
2023/03/07 11:30:00,28.5,11.2
2023/03/07 11:40:00,28.3,12.4
2023/03/07 11:50:00,28.2,11.5
2023/03/07 12:00:00,28.2,12.3
2023/03/07 12:10:00,28.0,11.6
2023/03/07 12:20:00,27.8,13.4
2023/03/07 12:30:00,27.7,14.0
2023/03/07 12:40:00,27.6,12.5
2023/03/07 12:50:00,27.5,12.7
2023/03/07 13:00:00,27.5,11.2
2023/03/07 13:10:00,27.6,11.2
2023/03/07 13:20:00,27.4,12.7
2023/03/07 13:30:00,27.4,11.1
2023/03/07 13:40:00,27.1,11.0
2023/03/07 13:50:00,27.0,11.8
2023/03/07 14:00:00,26.8,12.1
2023/03/07 14:10:00,26.6,11.3
2023/03/07 14:20:00,26.6,13.1
2023/03/07 14:30:00,26.6,13.5
2023/03/07 14:40:00,26.5,13.2
2023/03/07 14:50:00,26.5,13.2
2023/03/07 15:00:00,26.2,13.2
2023/03/07 15:10:00,25.9,11.9
2023/03/07 15:20:00,25.8,12.4
2023/03/07 15:30:00,25.7,11.1
2023/03/07 15:40:00,25.7,10.9
2023/03/07 15:50:00,25.6,10.4
2023/03/07 16:00:00,25.6,11.1
2023/03/07 16:10:00,25.6,10.1
2023/03/07 16:20:00,25.3, 9.5
2023/03/07 16:30:00,25.1, 7.8
2023/03/07 16:40:00,25.2, 6.5
2023/03/07 16:50:00,25.1, 6.3
2023/03/07 17:00:00,25.2, 5.2
2023/03/07 17:10:00,25.0, 4.4
2023/03/07 17:20:00,25.3, 4.0
2023/03/07 17:30:00,25.2, 3.8
2023/03/07 17:40:00,25.0, 3.4
2023/03/07 17:50:00,25.0, 3.1
2023/03/07 18:00:00,24.9, 2.7
2023/03/07 18:10:00,24.8, 2.9
2023/03/07 18:20:00,24.8, 2.8
2023/03/07 18:30:00,24.9, 2.8
2023/03/07 18:40:00,24.7, 2.8
2023/03/07 18:50:00,24.8, 2.6
2023/03/07 19:00:00,24.8, 2.4
2023/03/07 19:10:00,24.9, 2.4
2023/03/07 19:20:00,25.0, 2.2
2023/03/07 19:30:00,25.1, 2.1
2023/03/07 19:40:00,25.0, 2.4
2023/03/07 19:50:00,25.1, 2.4
2023/03/07 20:00:00,25.2, 2.0
2023/03/07 20:10:00,25.1, 2.0
2023/03/07 20:20:00,25.1, 2.2
2023/03/07 20:30:00,25.1, 1.9
2023/03/07 20:40:00,25.2, 2.4
2023/03/07 20:50:00,25.1, 2.1
2023/03/07 21:00:00,25.1, 1.8
2023/03/07 21:10:00,25.1, 2.4
2023/03/07 21:20:00,25.1, 2.2
2023/03/07 21:30:00,25.3, 1.8
2023/03/07 21:40:00,25.3, 2.4
2023/03/07 21:50:00,25.3, 2.1
2023/03/07 22:00:00,25.0, 2.2
2023/03/07 22:10:00,24.9, 1.7
2023/03/07 22:20:00,24.9, 1.8
2023/03/07 22:30:00,24.9, 1.8
2023/03/07 22:40:00,24.9, 1.9
2023/03/07 22:50:00,24.8, 1.8
2023/03/07 23:00:00,24.8, 1.9
2023/03/07 23:10:00,24.7, 1.8
2023/03/07 23:20:00,24.8, 1.8
2023/03/07 23:30:00,24.7, 1.8
2023/03/07 23:40:00,24.7, 1.6
2023/03/07 23:50:00,24.7, 1.6
